Regional Weather Roundup
Issued by NWS Sioux Falls, SD

Home | Current Version | Previous Version | Text Only | Print | Product List | Glossary On
Versions: 1 2 3 4 5 6 7 8 9 10 11 12 13 14 15 16 17 18 19 20 21 22 23 24 25 26 27 28 29 30 31 32 33 34 35 36 37 38 39 40 41 42 43 44 45 46 47 48 49 50
494
ASUS43 KFSD 042102
RWRFSD

WEATHER ROUNDUP FOR SE SOUTH DAKOTA/SW MINNESOTA/NW IOWA
NATIONAL WEATHER SERVICE SIOUX FALLS SD
300 PM CST SUN DEC 04 2016

NOTE: "FAIR" INDICATES FEW OR NO CLOUDS BELOW 12,000 FEET WITH NO
SIGNIFICANT WEATHER AND OR OBSTRUCTIONS TO VISIBILITY.


SDZ038>040-050-052>070-042200-
SOUTHEAST SOUTH DAKOTA

CITY           SKY/WX    TMP DP  RH WIND       PRES   REMARKS
CHAMBERLAIN    SUNNY     45  30  55 NW8       29.80F
HURON          SUNNY     42  31  64 W13       29.79S
MADISON        FAIR      39  37  93 W13       29.78S
MITCHELL       SUNNY     44  32  62 W15       29.81F
SIOUX FALLS    MOSUNNY   44  33  65 W9        29.80F
WINNER         FAIR      48  24  39 W13       29.81F
YANKTON        SUNNY     48  27  43 W14       29.82F
$$

MNZ071-072-080-081-089-090-097-098-042200-
SOUTHWEST MINNESOTA

CITY           SKY/WX    TMP DP  RH WIND       PRES   REMARKS
FAIRMONT       MOSUNNY   43  35  73 W13       29.79F
JACKSON        SUNNY     41  32  70 W15       29.79S
LUVERNE        SUNNY     43  32  65 W12       29.80S
MARSHALL       SUNNY     42  32  67 W20       29.76S
MONTEVIDEO     CLOUDY    39  34  81 NW13G20   29.76S
PIPESTONE      SUNNY     41  34  75 W12G20    29.77S
REDWOOD FALLS  LGT RAIN  41  32  70 W9        29.75S
TRACY          SUNNY     42  34  72 W10G21    29.77S
WINDOM         SUNNY     43  34  70 W13G18    29.78R
WORTHINGTON    SUNNY     42  33  70 W20       29.78F
$$

IAZ001>003-012>014-020>022-031-032-NEZ013-014-SDZ071-042200-
NORTHWEST IOWA

CITY           SKY/WX    TMP DP  RH WIND       PRES   REMARKS
CHEROKEE       SUNNY     45  35  69 W14       29.83S
DENISON        SUNNY     43  36  75 SW9       29.84F
ESTHERVILLE    SUNNY     43  36  76 W14       29.79F
LE MARS        SUNNY     48  32  53 W9        29.83F
ORANGE CITY    SUNNY     45  36  70 W6        29.82S
SHELDON        SUNNY     45  34  65 W14G20    29.80S
SIOUX CITY     SUNNY     51  33  50 W10       29.84F
SPENCER        SUNNY     45  34  65 W20G29    29.81S
STORM LAKE     SUNNY     39  37  93 SW13      29.83S
$$

ABBREVIATIONS USED IN REMARKS
   TC - TEMPERATURE IN CELSIUS
  WCI - WIND CHILL INDEX
   HX - HEAT INDEX
  VSB - VISIBILITY





USA.gov is the U.S. government's official web portal to all federal, state and local government web resources and services.